Previsão horária em Semypolky

Hoje, 30 Julho, Sexta-feira

Tempo Temperatura Precipitação Vento Pressão Humidade
00:00 +20°C° 0 mm 3 m/s 746 mmHg 93%
01:00 +20°C° 0 mm 3 m/s 746 mmHg 93%
02:00 +20°C° 0 mm 3 m/s 746 mmHg 93%
03:00 +20°C° 0 mm 3 m/s 746 mmHg 94%
04:00 +20°C° 0 mm 3 m/s 746 mmHg 94%
05:00 +20°C° 0 mm 3 m/s 746 mmHg 94%
06:00 +21°C° 0 mm 3 m/s 747 mmHg 87%
07:00 +22°C° 0 mm 4 m/s 747 mmHg 80%
08:00 +25°C° 0 mm 4 m/s 747 mmHg 73%
09:00 +26°C° 0 mm 4 m/s 747 mmHg 64%
10:00 +28°C° 0 mm 4 m/s 747 mmHg 55%
11:00 +29°C° 0 mm 4 m/s 747 mmHg 47%
12:00 +30°C° 0 mm 3 m/s 747 mmHg 44%
13:00 +30°C° 0 mm 3 m/s 747 mmHg 41%
14:00 +31°C° 0 mm 3 m/s 747 mmHg 38%
15:00 +31°C° 0 mm 3 m/s 747 mmHg 39%
16:00 +30°C° 0 mm 3 m/s 746 mmHg 40%
17:00 +30°C° 0 mm 3 m/s 746 mmHg 41%
18:00 +28°C° 0 mm 2 m/s 746 mmHg 46%
19:00 +26°C° 0 mm 2 m/s 747 mmHg 51%
20:00 +25°C° 0 mm 2 m/s 747 mmHg 56%
21:00 +24°C° 0 mm 2 m/s 747 mmHg 59%
22:00 +23°C° 0 mm 1 m/s 747 mmHg 61%
23:00 +22°C° 0 mm 1 m/s 747 mmHg 63%

Amanhã, 31 Julho, Sábado

Tempo Temperatura Precipitação Vento Pressão Humidade
00:00 +22°C° 0 mm 1 m/s 747 mmHg 65%
01:00 +20°C° 0 mm 2 m/s 747 mmHg 66%
02:00 +20°C° 0 mm 2 m/s 747 mmHg 67%
03:00 +20°C° 0 mm 2 m/s 747 mmHg 68%
04:00 +20°C° 0 mm 2 m/s 747 mmHg 69%
05:00 +20°C° 0 mm 3 m/s 748 mmHg 70%
06:00 +22°C° 0 mm 3 m/s 748 mmHg 65%
07:00 +24°C° 0 mm 3 m/s 748 mmHg 59%
08:00 +26°C° 0 mm 3 m/s 748 mmHg 54%
09:00 +28°C° 0 mm 3 m/s 748 mmHg 49%
10:00 +30°C° 0 mm 3 m/s 748 mmHg 44%
11:00 +31°C° 0 mm 3 m/s 748 mmHg 40%
12:00 +33°C° 0 mm 3 m/s 748 mmHg 38%
13:00 +34°C° 0 mm 3 m/s 748 mmHg 35%
14:00 +34°C° 0 mm 3 m/s 747 mmHg 33%
15:00 +34°C° 0 mm 3 m/s 747 mmHg 34%
16:00 +34°C° 0 mm 3 m/s 747 mmHg 35%
17:00 +32°C° 0 mm 2 m/s 747 mmHg 37%
18:00 +30°C° 0 mm 3 m/s 747 mmHg 42%
19:00 +29°C° 0 mm 3 m/s 747 mmHg 47%
20:00 +27°C° 0 mm 3 m/s 747 mmHg 53%
21:00 +26°C° 0 mm 3 m/s 747 mmHg 54%
22:00 +25°C° 0 mm 3 m/s 747 mmHg 56%
23:00 +25°C° 0 mm 3 m/s 747 mmHg 57%

Depois de amanhã, 1 Agosto, Domingo

Tempo Temperatura Precipitação Vento Pressão Humidade
00:00 +24°C° 0 mm 3 m/s 747 mmHg 58%
01:00 +24°C° 0 mm 3 m/s 747 mmHg 59%
02:00 +22°C° 0 mm 3 m/s 747 mmHg 60%
03:00 +22°C° 0 mm 3 m/s 747 mmHg 62%
04:00 +22°C° 0 mm 3 m/s 747 mmHg 63%
05:00 +21°C° 0 mm 3 m/s 747 mmHg 64%
06:00 +23°C° 0 mm 4 m/s 747 mmHg 60%
07:00 +26°C° 0 mm 4 m/s 747 mmHg 55%
08:00 +28°C° 0 mm 4 m/s 747 mmHg 51%
09:00 +29°C° 0 mm 4 m/s 747 mmHg 49%
10:00 +30°C° 0 mm 4 m/s 747 mmHg 47%
11:00 +33°C° 0 mm 4 m/s 747 mmHg 45%
12:00 +33°C° 0 mm 4 m/s 747 mmHg 44%
13:00 +34°C° 0 mm 4 m/s 747 mmHg 43%
14:00 +35°C° 0 mm 4 m/s 746 mmHg 42%
15:00 +34°C° 0 mm 3 m/s 746 mmHg 44%
16:00 +34°C° 0 mm 3 m/s 746 mmHg 46%
17:00 +32°C° 0 mm 2 m/s 746 mmHg 49%
18:00 +30°C° 0.3 mm 2 m/s 746 mmHg 56%
19:00 +28°C° 0.3 mm 2 m/s 746 mmHg 62%
20:00 +26°C° 0.3 mm 1 m/s 746 mmHg 69%
21:00 +25°C° 0.3 mm 2 m/s 746 mmHg 74%
22:00 +24°C° 0.3 mm 2 m/s 746 mmHg 80%
23:00 +22°C° 0.3 mm 3 m/s 746 mmHg 85%

2 Agosto, Segunda-feira

Tempo Temperatura Precipitação Vento Pressão Humidade
00:00 +23°C° 0.4 mm 2 m/s 745 mmHg 86%
01:00 +21°C° 0.4 mm 2 m/s 745 mmHg 88%
02:00 +21°C° 0.4 mm 2 m/s 745 mmHg 90%
03:00 +21°C° 5.4 mm 2 m/s 745 mmHg 90%
04:00 +20°C° 5.4 mm 3 m/s 745 mmHg 90%
05:00 +20°C° 5.4 mm 4 m/s 745 mmHg 91%
06:00 +21°C° 0.1 mm 4 m/s 745 mmHg 86%
07:00 +23°C° 0.1 mm 4 m/s 744 mmHg 81%
08:00 +25°C° 0.1 mm 5 m/s 744 mmHg 77%
09:00 +27°C° 0 mm 5 m/s 744 mmHg 68%
10:00 +29°C° 0 mm 4 m/s 744 mmHg 60%
11:00 +32°C° 0 mm 4 m/s 744 mmHg 52%
12:00 +30°C° 0 mm 4 m/s 744 mmHg 56%
13:00 +29°C° 0 mm 4 m/s 744 mmHg 60%
14:00 +28°C° 0 mm 4 m/s 744 mmHg 63%
15:00 +28°C° 0.1 mm 4 m/s 744 mmHg 63%
16:00 +28°C° 0.1 mm 5 m/s 744 mmHg 62%
17:00 +28°C° 0.1 mm 5 m/s 744 mmHg 62%
18:00 +26°C° 0.1 mm 5 m/s 745 mmHg 67%
19:00 +23°C° 0.1 mm 5 m/s 745 mmHg 72%
20:00 +21°C° 0.1 mm 5 m/s 746 mmHg 77%
21:00 +20°C° 0 mm 5 m/s 746 mmHg 79%
22:00 +19°C° 0 mm 5 m/s 747 mmHg 80%
23:00 +17°C° 0 mm 5 m/s 747 mmHg 82%

3 Agosto, Terça-feira

Tempo Temperatura Precipitação Vento Pressão Humidade
00:00 +18°C° 0 mm 4 m/s 747 mmHg 83%
01:00 +17°C° 0 mm 4 m/s 748 mmHg 85%
02:00 +16°C° 0 mm 3 m/s 748 mmHg 86%
03:00 +16°C° 0 mm 3 m/s 748 mmHg 87%
04:00 +16°C° 0 mm 3 m/s 749 mmHg 88%
05:00 +16°C° 0 mm 3 m/s 749 mmHg 89%
06:00 +17°C° 0 mm 3 m/s 749 mmHg 83%
07:00 +19°C° 0 mm 3 m/s 750 mmHg 76%
08:00 +21°C° 0 mm 4 m/s 750 mmHg 69%
09:00 +22°C° 0 mm 3 m/s 750 mmHg 63%
10:00 +24°C° 0 mm 3 m/s 750 mmHg 57%
11:00 +26°C° 0 mm 3 m/s 750 mmHg 51%
12:00 +26°C° 0 mm 3 m/s 750 mmHg 48%
13:00 +27°C° 0 mm 3 m/s 750 mmHg 46%
14:00 +28°C° 0 mm 4 m/s 750 mmHg 43%
15:00 +27°C° 0 mm 3 m/s 750 mmHg 48%
16:00 +26°C° 0 mm 3 m/s 750 mmHg 52%
17:00 +25°C° 0 mm 3 m/s 750 mmHg 56%
18:00 +24°C° 0.1 mm 3 m/s 750 mmHg 61%
19:00 +22°C° 0.1 mm 3 m/s 751 mmHg 65%
20:00 +21°C° 0.1 mm 2 m/s 751 mmHg 69%
21:00 +20°C° 0 mm 2 m/s 751 mmHg 71%
22:00 +20°C° 0 mm 2 m/s 751 mmHg 72%
23:00 +20°C° 0 mm 1 m/s 751 mmHg 74%

4 Agosto, Quarta-feira

Tempo Temperatura Precipitação Vento Pressão Humidade
00:00 +19°C° 0 mm 1 m/s 751 mmHg 75%
01:00 +18°C° 0 mm 1 m/s 752 mmHg 77%
02:00 +18°C° 0 mm 1 m/s 752 mmHg 78%
03:00 +18°C° 0 mm 1 m/s 752 mmHg 79%
04:00 +16°C° 0 mm 1 m/s 752 mmHg 80%
05:00 +16°C° 0 mm 1 m/s 752 mmHg 81%
06:00 +19°C° 0 mm 1 m/s 752 mmHg 74%
07:00 +21°C° 0 mm 1 m/s 752 mmHg 68%
08:00 +20°C° 0 mm 0 m/s 752 mmHg 61%
09:00 +24°C° 0 mm 1 m/s 752 mmHg 56%
10:00 +25°C° 0 mm 1 m/s 752 mmHg 51%
11:00 +27°C° 0 mm 1 m/s 752 mmHg 46%
12:00 +27°C° 0 mm 1 m/s 752 mmHg 43%
13:00 +28°C° 0 mm 1 m/s 752 mmHg 41%
14:00 +28°C° 0 mm 2 m/s 751 mmHg 39%
15:00 +28°C° 0 mm 1 m/s 751 mmHg 40%
16:00 +28°C° 0 mm 1 m/s 751 mmHg 42%
17:00 +28°C° 0 mm 1 m/s 751 mmHg 43%
18:00 +26°C° 0.1 mm 1 m/s 751 mmHg 52%
19:00 +24°C° 0.1 mm 2 m/s 751 mmHg 60%
20:00 +21°C° 0.1 mm 2 m/s 751 mmHg 68%
21:00 +20°C° 0.2 mm 2 m/s 751 mmHg 74%
22:00 +19°C° 0.2 mm 2 m/s 751 mmHg 80%
23:00 +19°C° 0.2 mm 1 m/s 751 mmHg 86%
Mostrar mais

Necessitamos do seu Consentimento

A Meteoprog e os seus Fornecedores de Serviços podem armazenar e aceder a dados pessoais como cookies, identificadores do dispositivo ou outras tecnologias semelhantes existentes no seu dispositivo e processar estes dados para personalizar conteúdos e anúncios, assim como funcionalidades nas redes sociais e análise de tráfego.

  • Armazenar e/ou aceder a informações no seu dispositivo

    Os cookies, identificadores do dispositivo ou outras informações podem ser armazenados ou acedidos no seu dispositivo, para os fins acima indicados.

  • Anúncios e conteúdos personalizados, medição de anúncios e conteúdos, dados sobre o público-alvo e desenvolvimento de produtos

    Os anúncios e os conteúdos podem ser personalizados com base num perfil. Podem ser adicionados dados adicionais para uma maior personalização dos anúncios e dos conteúdos. A eficácia dos anúncios e dos conteúdos pode ser medida. Podem ser obtidas informações sobre o público que visualizou os anúncios e os conteúdos. Estes dados podem ser usados para desenvolver ou melhorar sistemas, softwares ou a experiência do utilizador.

Ao clicar em "Eu concordo”, permitirá o uso de cookies, identificadores do dispositivo e web beacons mencionados ou outras tecnologias semelhantes. As configurações do navegador do seu dispositivo podem ser alteradas.

Para certos fins, podem ser invocados interesses legítimos ao invés de consentimento. Pode ler mais informação sobre este assunto na nossa Política de Privacidade e Cookies.